Starlink 30090

operational
NORAD ID: 56293 Int'l Des: 2023-056 Owner: SPXS Country: US Constellation: starlink
LEOCIRCULAR

Starlink 30090について

説明を読み込み中...

リアルタイム位置

3D地球を読み込み中...

次回通過

高度履歴

Altitude vs Time

uPlot chart will show altitude changes over time

軌道要素

1 56293U 23056H 25305.95079203 -.00000351 00000-0 -10918-4 0 9995
2 56293 43.0035 184.7897 0001073 256.8370 103.2352 15.02536089140806
Epoch: Nov 1, 2025 • Age: 38 hours

現在のステータス

高度 559.8 km
速度 7.58 km/s
衛星直下点 -6.14°S, 69.56°W
打ち上げ日 Apr 19, 2023
運用期間 2.5 years
タイプ internet

技術仕様

分類 Payload
質量 730.00 kg
乾燥質量 700.00 kg
総質量 730.00 kg
長さ 0.30 m
直径 4.10 m
スパン 29.00 m
形状 Box + pan
製造者 SPXS
バスタイプ Starlink V2M
フェーズステータス In Orbit
所有者/国 SPXS/US

大規模コンステレーション

Loading constellations...